Tracking 29594 objects as of 20-Sep-2024
HD Live streaming from Space Station
objects crossing your sky now

SKYKRAFT-3B

Track SKYKRAFT-3B now!
10-day predictions
SKYKRAFT-3B is classified as:


NORAD ID: 56227
Int'l Code: 2023-084BL
Perigee: 417.3 km
Apogee: 424.4 km
Inclination: 97.5 °
Period: 92.8 minutes
Semi major axis: 6791 km
RCS: Unknown
Launch date: June 12, 2023
Source: Australia (AUS)
Launch site: AIR FORCE WESTERN TEST RANGE (AFWTR)

Uplink (MHz):
Downlink (MHz): 437.250
Beacon (MHz):
Mode: LoRa
Call sign:
Status: Unknown

Your satellite tracking list
Your tracking list is empty




NASA's NSSDC Master Catalog

Two Line Element Set (TLE):
1 56227U 23084BL  24264.83115742  .00130648  00000-0  22146-2 0  9997
2 56227  97.5421  29.0759 0005183 323.5267  36.5630 15.51037178 71020
Source of the keplerian elements: AFSPC